Location: *
(49.7115°N, 15.0136°E)
Time: 17:57:15
(UTC+00:00)

STARLINK-1008 - Pass Details

Date: 27 February 2020
Orbit: 549 x 550 km, 53.0° (Epoch: 01 April)

Event Time Altitude Azimuth Distance (km) Brightness Sun altitude
Rises 18:35:16 0° 285° (WNW) 2,716 8.8 -19.6°
Reaches altitude 10° 18:37:32 10° 289° (WNW) 1,821 7.5 -20.0°
Maximum altitude 18:41:37 57° 9° (N) 647 3.9 -20.6°
Enters shadow 18:42:13 51° 46° (NE) 694 3.8 -20.7°
